| time (UTC) | temp F | wind direction | speed knots | gust knots | rain 1hr in | rain 24hr in | rain mn in | humidity % | barometer mb |
| 20260507132004 | 51 | 129 | 5.2 | 13.0 | 0.12 | 0.12 | 0.12 | 91 | 1010.6 |
| 20260507131504 | 51 | 96 | 7.0 | 14.8 | 0.12 | 0.12 | 0.12 | 90 | 1010.7 |
| 20260507131004 | 52 | 87 | 7.0 | 14.8 | 0.12 | 0.12 | 0.12 | 90 | 1010.3 |
| 20260507130504 | 53 | 86 | 6.1 | 13.9 | 0.12 | 0.12 | 0.12 | 89 | 1009.8 |
| 20260507130004 | 52 | 115 | 7.0 | 13.9 | 0.11 | 0.11 | 0.11 | 87 | 1009.9 |
| 20260507125525 | 52 | 161 | 6.1 | 13.0 | 0.10 | 0.10 | 0.11 | 85 | 1010.4 |
| 20260507125004 | 53 | 146 | 6.1 | 14.8 | 0.07 | 0.07 | 0.07 | 83 | 1010.6 |
| 20260507124504 | 54 | 91 | 6.1 | 14.8 | 0.05 | 0.05 | 0.05 | 83 | 1010.3 |
| 20260507124004 | 55 | 88 | 7.8 | 15.6 | 0.03 | 0.03 | 0.03 | 80 | 1009.9 |
| 20260507123504 | 56 | 85 | 7.0 | 15.6 | 0.03 | 0.03 | 0.03 | 78 | 1009.7 |
| 20260507123025 | 58 | 87 | 4.3 | 13.0 | 0.02 | 0.02 | 0.02 | 80 | 1009.7 |
| 20260507122525 | 61 | 122 | 2.6 | 9.6 | 0.01 | 0.01 | 0.01 | 72 | 1009.5 |
| 20260507122004 | 62 | 176 | 1.7 | 5.2 | 0.00 | 0.00 | 0.00 | 65 | 1009.8 |
| 20260507121504 | 62 | 144 | 1.7 | 6.1 | 0.00 | 0.00 | 0.00 | 63 | 1009.9 |
| 20260507121004 | 62 | 100 | 2.6 | 6.1 | 0.00 | 0.00 | 0.00 | 62 | 1009.5 |
| 20260507120525 | 63 | 98 | 2.6 | 7.0 | 0.00 | 0.00 | 0.00 | 61 | 1009.6 |
| 20260507120005 | 63 | 96 | 2.6 | 7.0 | 0.00 | 0.00 | 0.00 | 61 | 1009.9 |
| 20260507115525 | 63 | 89 | 2.6 | 6.1 | 0.00 | 0.00 | 0.00 | 62 | 1009.8 |
| 20260507115004 | 63 | 84 | 1.7 | 6.1 | 0.00 | 0.00 | 0.00 | 61 | 1009.7 |
| 20260507114525 | 64 | 79 | 1.7 | 5.2 | 0.00 | 0.00 | 0.00 | 60 | 1009.7 |
| 20260507114004 | 62 | 79 | 1.7 | 3.5 | 0.00 | 0.00 | 0.00 | 63 | 1009.8 |
| 20260507113504 | 61 | 64 | 1.7 | 5.2 | 0.00 | 0.00 | 0.00 | 64 | 1009.8 |
| 20260507113004 | 61 | 37 | 1.7 | 5.2 | 0.00 | 0.00 | 0.00 | 65 | 1009.9 |
| 20260507112504 | 61 | 30 | 1.7 | 3.5 | 0.00 | 0.00 | 0.00 | 66 | 1010.1 |
| 20260507112004 | 61 | 51 | 1.7 | 5.2 | 0.00 | 0.00 | 0.00 | 65 | 1010.0 |
| 20260507111506 | 61 | 67 | 1.7 | 5.2 | 0.00 | 0.00 | 0.00 | 65 | 1010.1 |
| 20260507111004 | 61 | 115 | 2.6 | 7.0 | 0.00 | 0.00 | 0.00 | 66 | 1010.3 |
| 20260507110504 | 61 | 155 | 2.6 | 7.0 | 0.00 | 0.00 | 0.00 | 66 | 1010.4 |
| 20260507110004 | 61 | 101 | 2.6 | 7.0 | 0.00 | 0.00 | 0.00 | 66 | 1010.3 |
| 20260507105504 | 61 | 87 | 2.6 | 7.0 | 0.00 | 0.00 | 0.00 | 66 | 1010.4 |
| 20260507105004 | 61 | 108 | 1.7 | 3.5 | 0.00 | 0.00 | 0.00 | 65 | 1010.4 |
| 20260507104505 | 61 | 88 | 1.7 | 3.5 | 0.00 | 0.00 | 0.00 | 66 | 1010.5 |
| 20260507104025 | 61 | 14 | 1.7 | 3.5 | 0.00 | 0.00 | 0.00 | 66 | 1010.5 |
| 20260507103504 | 60 | 31 | 2.6 | 6.1 | 0.00 | 0.00 | 0.00 | 68 | 1010.5 |
| 20260507103004 | 59 | 44 | 2.6 | 6.1 | 0.00 | 0.00 | 0.00 | 68 | 1010.7 |
| 20260507102504 | 60 | 66 | 1.7 | 6.1 | 0.00 | 0.00 | 0.00 | 67 | 1010.6 |
| 20260507102006 | 60 | 89 | 1.7 | 5.2 | 0.00 | 0.00 | 0.00 | 68 | 1010.8 |
| 20260507101525 | 60 | 112 | 1.7 | 5.2 | 0.00 | 0.00 | 0.00 | 68 | 1011.0 |
| 20260507101004 | 60 | 114 | 2.6 | 6.1 | 0.00 | 0.00 | 0.00 | 67 | 1011.1 |
| 20260507100504 | 59 | 92 | 2.6 | 7.8 | 0.00 | 0.00 | 0.00 | 69 | 1011.3 |
| 20260507100005 | 59 | 66 | 2.6 | 7.8 | 0.00 | 0.00 | 0.00 | 68 | 1011.1 |
| 20260507095504 | 59 | 75 | 1.7 | 5.2 | 0.00 | 0.00 | 0.00 | 70 | 1010.8 |
| 20260507095004 | 59 | 84 | 1.7 | 5.2 | 0.00 | 0.00 | 0.00 | 69 | 1010.7 |
| 20260507094525 | 58 | 80 | 2.6 | 6.1 | 0.00 | 0.00 | 0.00 | 70 | 1011.1 |
| 20260507094004 | 58 | 85 | 1.7 | 6.1 | 0.00 | 0.00 | 0.00 | 70 | 1010.8 |
| 20260507093504 | 59 | 77 | 2.6 | 7.0 | 0.00 | 0.00 | 0.00 | 69 | 1011.1 |
| 20260507093004 | 57 | 70 | 3.5 | 7.0 | 0.00 | 0.00 | 0.00 | 72 | 1011.1 |
| 20260507092504 | 57 | 65 | 2.6 | 7.0 | 0.00 | 0.00 | 0.00 | 71 | 1011.1 |
| 20260507092004 | 57 | 71 | 1.7 | 6.1 | 0.00 | 0.00 | 0.00 | 71 | 1011.1 |
| 20260507091504 | 58 | 83 | 1.7 | 6.1 | 0.00 | 0.00 | 0.00 | 69 | 1011.2 |
| 20260507091004 | 59 | 89 | 1.7 | 7.0 | 0.00 | 0.00 | 0.00 | 68 | 1011.1 |
| 20260507090504 | 58 | 77 | 1.7 | 7.0 | 0.00 | 0.00 | 0.00 | 70 | 1011.1 |
| 20260507090005 | 57 | 67 | 2.6 | 8.7 | 0.00 | 0.00 | 0.00 | 72 | 1011.1 |
| 20260507085504 | 56 | 61 | 3.5 | 8.7 | 0.00 | 0.00 | 0.00 | 72 | 1010.7 |
| 20260507085004 | 56 | 52 | 3.5 | 7.0 | 0.00 | 0.00 | 0.00 | 73 | 1011.0 |
| 20260507084504 | 57 | 48 | 2.6 | 7.0 | 0.00 | 0.00 | 0.00 | 72 | 1011.1 |
| 20260507084004 | 57 | 46 | 2.6 | 7.8 | 0.00 | 0.00 | 0.00 | 71 | 1010.8 |
| 20260507083504 | 56 | 52 | 3.5 | 7.8 | 0.00 | 0.00 | 0.00 | 73 | 1010.8 |
| 20260507083004 | 56 | 56 | 2.6 | 6.1 | 0.00 | 0.00 | 0.00 | 72 | 1011.0 |
| 20260507082504 | 56 | 62 | 2.6 | 6.1 | 0.00 | 0.00 | 0.00 | 72 | 1010.8 |
| 20260507082004 | 55 | 64 | 2.6 | 7.0 | 0.00 | 0.00 | 0.00 | 74 | 1011.0 |
| 20260507081525 | 54 | 62 | 2.6 | 7.0 | 0.00 | 0.00 | 0.00 | 75 | 1011.2 |
| 20260507081004 | 54 | 57 | 2.6 | 6.1 | 0.00 | 0.00 | 0.00 | 75 | 1011.1 |
| 20260507080525 | 53 | 56 | 2.6 | 6.1 | 0.00 | 0.00 | 0.00 | 76 | 1011.1 |
| 20260507080004 | 53 | 52 | 2.6 | 6.1 | 0.00 | 0.00 | 0.00 | 77 | 1011.1 |
| 20260507075525 | 54 | 45 | 1.7 | 6.1 | 0.00 | 0.00 | 0.00 | 76 | 1011.4 |
| 20260507075025 | 53 | 44 | 1.7 | 7.8 | 0.00 | 0.00 | 0.00 | 77 | 1010.8 |
| 20260507074525 | 53 | 37 | 2.6 | 8.7 | 0.00 | 0.00 | 0.00 | 77 | 1010.7 |
| 20260507074025 | 53 | 35 | 3.5 | 8.7 | 0.00 | 0.00 | 0.00 | 77 | 1011.0 |
| 20260507073504 | 53 | 40 | 3.5 | 7.8 | 0.00 | 0.00 | 0.00 | 77 | 1010.6 |
| 20260507073004 | 53 | 39 | 2.6 | 7.0 | 0.00 | 0.00 | 0.00 | 76 | 1010.7 |
| 20260507072504 | 53 | 32 | 3.5 | 7.0 | 0.00 | 0.00 | 0.00 | 76 | 1010.7 |
| 20260507072004 | 53 | 35 | 3.5 | 8.7 | 0.00 | 0.00 | 0.00 | 77 | 1010.7 |
| 20260507071504 | 53 | 55 | 3.5 | 8.7 | 0.00 | 0.00 | 0.00 | 77 | 1010.8 |
| 20260507071025 | 53 | 62 | 3.5 | 7.0 | 0.00 | 0.00 | 0.00 | 77 | 1010.7 |
| 20260507070504 | 53 | 60 | 3.5 | 7.0 | 0.00 | 0.00 | 0.00 | 77 | 1011.1 |
| 20260507070025 | 53 | 52 | 2.6 | 7.0 | 0.00 | 0.00 | 0.00 | 77 | 1011.0 |
| 20260507065504 | 53 | 48 | 2.6 | 7.0 | 0.00 | 0.00 | 0.00 | 77 | 1010.7 |